| time (UTC) | temp C | wind direction | speed KPH | gust KPH | rain 1hr cm | rain 24hr cm | rain mn cm | humidity % | barometer mb |
| 20260831134542 | 20 | 326 | 0.0 | 1.6 | 0.00 | 0.25 | 0.25 | 72 | 1020.4 |
| 20260831133043 | 20 | 326 | 0.0 | 0.0 | 0.00 | 0.25 | 0.25 | 72 | 1020.3 |
| 20260831131548 | 19 | 326 | 0.0 | 6.4 | 0.00 | 0.25 | 0.25 | 71 | 1020.0 |
| 20260831130035 | 19 | 320 | 0.0 | 0.0 | 0.00 | 0.25 | 0.25 | 73 | 1020.1 |
| 20260831124535 | 19 | 312 | 0.0 | 9.7 | 0.00 | 0.25 | 0.25 | 77 | 1020.1 |
| 20260831123030 | 18 | 300 | 0.0 | 4.8 | 0.00 | 0.25 | 0.25 | 87 | 1020.0 |
| 20260831121530 | 17 | 299 | 0.0 | 0.0 | 0.00 | 0.25 | 0.25 | 90 | 1019.9 |
| 20260831120027 | 16 | 299 | 0.0 | 0.0 | 0.03 | 0.25 | 0.25 | 91 | 1020.0 |
| 20260831114525 | 16 | 299 | 0.0 | 3.2 | 0.03 | 0.25 | 0.25 | 91 | 1019.7 |
| 20260831113022 | 16 | 299 | 0.0 | 0.0 | 0.03 | 0.25 | 0.25 | 91 | 1019.6 |
| 20260831111518 | 15 | 299 | 0.0 | 0.0 | 0.03 | 0.25 | 0.25 | 91 | 1019.5 |
| 20260831110018 | 15 | 299 | 0.0 | 0.0 | 0.00 | 0.23 | 0.23 | 91 | 1019.3 |
| 20260831104514 | 15 | 299 | 0.0 | 0.0 | 0.00 | 0.23 | 0.23 | 91 | 1019.1 |
| 20260831103012 | 15 | 299 | 0.0 | 0.0 | 0.00 | 0.23 | 0.23 | 90 | 1019.0 |
| 20260831101511 | 15 | 299 | 0.0 | 0.0 | 0.00 | 0.23 | 0.23 | 90 | 1018.8 |
| 20260831100008 | 16 | 299 | 0.0 | 0.0 | 0.00 | 0.23 | 0.23 | 90 | 1018.9 |
| 20260831094509 | 16 | 299 | 0.0 | 0.0 | 0.00 | 0.23 | 0.23 | 89 | 1018.8 |
| 20260831093040 | 16 | 299 | 0.0 | 0.0 | 0.00 | 0.23 | 0.23 | 89 | 1018.7 |
| 20260831091533 | 17 | 299 | 0.0 | 0.0 | 0.00 | 0.23 | 0.23 | 89 | 1018.6 |
| 20260831090100 | 17 | 299 | 0.0 | 0.0 | 0.00 | 0.23 | 0.23 | 88 | 1018.3 |
| 20260831084600 | 17 | 299 | 0.0 | 6.4 | 0.00 | 0.23 | 0.23 | 90 | 1018.4 |
| 20260831083056 | 17 | 299 | 0.0 | 0.0 | 0.00 | 0.23 | 0.23 | 89 | 1018.4 |
| 20260831081555 | 17 | 299 | 0.0 | 0.0 | 0.00 | 0.23 | 0.23 | 89 | 1018.2 |
| 20260831080053 | 17 | 299 | 0.0 | 4.8 | 0.00 | 0.23 | 0.23 | 89 | 1018.3 |
| 20260831074552 | 17 | 299 | 0.0 | 0.0 | 0.00 | 0.23 | 0.23 | 89 | 1018.2 |
| 20260831073055 | 17 | 299 | 0.0 | 0.0 | 0.00 | 0.23 | 0.23 | 88 | 1018.1 |
| 20260831071546 | 17 | 299 | 0.0 | 0.0 | 0.00 | 0.23 | 0.23 | 88 | 1018.0 |
| 20260831070044 | 17 | 299 | 0.0 | 0.0 | 0.00 | 0.23 | 0.23 | 88 | 1017.9 |
| 20260831064641 | 17 | 299 | 0.0 | 0.0 | 0.00 | 0.23 | 0.23 | 87 | 1017.8 |
| 20260831063040 | 18 | 299 | 0.0 | 0.0 | 0.00 | 0.23 | 0.23 | 87 | 1017.7 |
| 20260831061536 | 18 | 299 | 0.0 | 0.0 | 0.00 | 0.23 | 0.23 | 86 | 1017.7 |
| 20260831060032 | 19 | 299 | 0.0 | 0.0 | 0.00 | 0.23 | 0.23 | 84 | 1017.7 |
| 20260831054534 | 20 | 298 | 0.0 | 9.7 | 0.00 | 0.23 | 0.23 | 84 | 1017.6 |
| 20260831053026 | 20 | 282 | 4.8 | 12.9 | 0.00 | 0.23 | 0.23 | 81 | 1017.4 |
| 20260831051525 | 20 | 301 | 4.8 | 12.9 | 0.00 | 0.23 | 0.23 | 83 | 1017.3 |
| 20260831050024 | 21 | 301 | 1.6 | 8.0 | 0.00 | 0.23 | 0.23 | 85 | 1017.2 |
| 20260831044525 | 21 | 303 | 3.2 | 16.1 | 0.00 | 0.23 | 0.23 | 86 | 1017.1 |
| 20260831043020 | 21 | 315 | 0.0 | 9.7 | 0.00 | 0.23 | 0.23 | 88 | 1017.2 |
| 20260831041536 | 20 | 324 | 3.2 | 14.5 | 0.00 | 0.23 | 0.23 | 90 | 1017.1 |
| 20260831040018 | 20 | 272 | 3.2 | 6.4 | 0.00 | 0.23 | 0.23 | 90 | 1017.1 |
| 20260831034516 | 20 | 272 | 0.0 | 6.4 | 0.00 | 0.23 | 0.23 | 90 | 1017.1 |
| 20260831033013 | 20 | 272 | 0.0 | 9.7 | 0.00 | 0.23 | 0.23 | 90 | 1017.1 |
| 20260831031510 | 20 | 195 | 0.0 | 1.6 | 0.13 | 0.23 | 0.23 | 90 | 1017.1 |
| 20260831030009 | 20 | 194 | 0.0 | 0.0 | 0.23 | 0.23 | 0.23 | 90 | 1017.4 |
| 20260831024508 | 20 | 194 | 0.0 | 3.2 | 0.23 | 0.23 | 0.23 | 89 | 1017.3 |
| 20260831023006 | 20 | 194 | 0.0 | 11.3 | 0.23 | 0.23 | 0.23 | 88 | 1017.3 |
| 20260831021505 | 21 | 191 | 0.0 | 4.8 | 0.10 | 0.10 | 0.10 | 86 | 1017.4 |
| 20260831020100 | 21 | 189 | 0.0 | 0.0 | 0.00 | 0.00 | 0.00 | 85 | 1017.3 |
| 20260831014558 | 21 | 189 | 0.0 | 0.0 | 0.00 | 0.00 | 0.00 | 83 | 1017.2 |
| 20260831011557 | 21 | 189 | 0.0 | 8.0 | 0.00 | 0.00 | 0.00 | 82 | 1017.0 |
| 20260831010117 | 21 | 143 | 0.0 | 0.0 | 0.00 | 0.00 | 0.00 | 80 | 1017.0 |
| 20260831004555 | 21 | 143 | 0.0 | 0.0 | 0.00 | 0.00 | 0.00 | 78 | 1016.9 |
| 20260831003050 | 21 | 143 | 0.0 | 0.0 | 0.00 | 0.00 | 0.00 | 78 | 1016.9 |
| 20260831001547 | 21 | 143 | 0.0 | 0.0 | 0.00 | 0.00 | 0.00 | 77 | 1016.9 |
| 20260831000104 | 21 | 139 | 0.0 | 1.6 | 0.00 | 0.00 | 0.00 | 77 | 1016.7 |
| 20260830234543 | 22 | 137 | 0.0 | 0.0 | 0.00 | 0.00 | 0.00 | 76 | 1016.6 |
| 20260830233042 | 22 | 140 | 0.0 | 0.0 | 0.00 | 0.00 | 0.00 | 75 | 1016.6 |
| 20260830231532 | 22 | 139 | 0.0 | 0.0 | 0.00 | 0.00 | 0.00 | 73 | 1016.5 |
| 20260830230007 | 22 | 221 | 0.0 | 0.0 | 0.00 | 0.00 | 0.00 | 72 | 1016.7 |
| 20260830224503 | 22 | 220 | 0.0 | 6.4 | 0.00 | 0.00 | 0.00 | 72 | 1016.8 |
| 20260830223002 | 22 | 220 | 0.0 | 0.0 | 0.00 | 0.00 | 0.00 | 71 | 1016.8 |
| 20260830221605 | 22 | 221 | 0.0 | 11.3 | 0.00 | 0.00 | 0.00 | 70 | 1016.8 |
| 20260830220105 | 23 | 177 | 0.0 | 4.8 | 0.00 | 0.00 | 0.00 | 69 | 1016.9 |
| 20260830214556 | 23 | 174 | 0.0 | 0.0 | 0.00 | 0.00 | 0.00 | 68 | 1016.9 |
| 20260830213055 | 23 | 174 | 0.0 | 0.0 | 0.00 | 0.00 | 0.00 | 67 | 1016.9 |
| 20260830211555 | 23 | 180 | 0.0 | 8.0 | 0.00 | 0.00 | 0.00 | 67 | 1017.0 |
| 20260830210054 | 23 | 204 | 0.0 | 9.7 | 0.00 | 0.00 | 0.00 | 66 | 1016.9 |
| 20260830204551 | 24 | 186 | 0.0 | 11.3 | 0.00 | 0.00 | 0.00 | 64 | 1017.0 |
| 20260830203051 | 24 | 184 | 0.0 | 1.6 | 0.00 | 0.00 | 0.00 | 65 | 1017.0 |
| 20260830201550 | 24 | 184 | 0.0 | 1.6 | 0.00 | 0.00 | 0.00 | 62 | 1017.2 |
| 20260830200047 | 25 | 184 | 0.0 | 0.0 | 0.00 | 0.00 | 0.00 | 61 | 1017.3 |
| 20260830194557 | 24 | 184 | 0.0 | 1.6 | 0.00 | 0.00 | 0.00 | 59 | 1017.4 |
| 20260830193058 | 25 | 184 | 0.0 | 4.8 | 0.00 | 0.00 | 0.00 | 58 | 1017.5 |
| 20260830191541 | 25 | 170 | 0.0 | 1.6 | 0.00 | 0.00 | 0.00 | 57 | 1017.8 |
| 20260830190038 | 25 | 195 | 1.6 | 12.9 | 0.00 | 0.00 | 0.00 | 55 | 1018.2 |
| 20260830184536 | 25 | 196 | 1.6 | 12.9 | 0.00 | 0.00 | 0.00 | 52 | 1018.5 |
| 20260830183035 | 25 | 205 | 0.0 | 6.4 | 0.00 | 0.00 | 0.00 | 54 | 1018.5 |
| 20260830181632 | 25 | 195 | 1.6 | 12.9 | 0.00 | 0.00 | 0.00 | 53 | 1018.5 |
| 20260830180032 | 25 | 213 | 1.6 | 14.5 | 0.00 | 0.00 | 0.00 | 53 | 1018.6 |
| 20260830174536 | 25 | 197 | 0.0 | 22.5 | 0.00 | 0.00 | 0.00 | 54 | 1018.7 |
| 20260830173031 | 25 | 201 | 0.0 | 12.9 | 0.00 | 0.00 | 0.00 | 56 | 1018.9 |
| 20260830171525 | 25 | 203 | 4.8 | 17.7 | 0.00 | 0.00 | 0.00 | 57 | 1018.9 |
| 20260830170024 | 25 | 252 | 1.6 | 16.1 | 0.00 | 0.00 | 0.00 | 53 | 1019.0 |
| 20260830164523 | 25 | 238 | 0.0 | 12.9 | 0.00 | 0.00 | 0.00 | 57 | 1019.1 |
| 20260830163021 | 25 | 241 | 4.8 | 19.3 | 0.00 | 0.00 | 0.00 | 52 | 1019.3 |
| 20260830161520 | 25 | 208 | 6.4 | 20.9 | 0.00 | 0.00 | 0.00 | 52 | 1019.4 |
| 20260830160015 | 25 | 246 | 0.0 | 19.3 | 0.00 | 0.00 | 0.00 | 54 | 1019.6 |
| 20260830154513 | 24 | 236 | 1.6 | 16.1 | 0.00 | 0.00 | 0.00 | 57 | 1019.6 |
| 20260830153008 | 24 | 270 | 4.8 | 17.7 | 0.00 | 0.00 | 0.00 | 58 | 1019.8 |
| 20260830151505 | 23 | 280 | 0.0 | 1.6 | 0.00 | 0.00 | 0.00 | 66 | 1020.0 |
| 20260830150033 | 22 | 174 | 0.0 | 1.6 | 0.00 | 0.00 | 0.00 | 68 | 1020.1 |
| 20260830144542 | 21 | 162 | 0.0 | 0.0 | 0.00 | 0.00 | 0.00 | 71 | 1020.6 |
| 20260830143028 | 21 | 162 | 0.0 | 1.6 | 0.00 | 0.00 | 0.00 | 72 | 1020.7 |
| 20260830141529 | 21 | 162 | 0.0 | 1.6 | 0.00 | 0.00 | 0.00 | 72 | 1020.7 |
| 20260830140026 | 20 | 162 | 0.0 | 0.0 | 0.00 | 0.00 | 0.00 | 71 | 1020.7 |